Weather History for Sitka, AK

Change the Weather History Date:

Monday, July 15, 2013

  Actual Average Record
Temperature  
Mean Temperature 60 °F -  
Max Temperature 66 °F 59 °F 75 °F (2004)
Min Temperature 53 °F 51 °F 46 °F (2010)
Degree Days  
Heating Degree Days 6    
Growing Degree Days 10 (Base 50)    
Moisture  
Dew Point 50 °F    
Average Humidity 74    
Maximum Humidity 86    
Minimum Humidity 60    
Precipitation  
Precipitation 0.00 in - - ()
Sea Level Pressure  
Sea Level Pressure 30.24 in    
Wind  
Wind Speed 7 mph (NW)    
Max Wind Speed 17 mph    
Max Gust Speed -    
Visibility 10 miles    
Events      
Averages and records for this station are not official NWS values.
T = Trace of Precipitation, MM = Missing Value Source: NWS Daily Summary

Daily Weather History Graph

Daily Weather History Graph

Search for Another Location

Airport:

Trip Planner

Search our weather history database for the weather conditions in past years. The results will help you decide how hot, cold, wet, or windy it might be!

Date:

Astronomy

Jul. 15, 2013 Rise Set
Actual Time 4:29 AM AKDT 9:44 PM AKDT
Civil Twilight 3:30 AM AKDT 10:43 PM AKDT
Nautical Twilight 1:39 AM AKDT 12:35 AM AKDT
Astronomical Twilight Sun does not rise Sun does not rise
Moon 1:43 PM AKDT (7/15) 11:45 PM AKDT (7/15)
Length of Visible Light 19h 13m
Length of Day
17h 14m
Waxing Crescent, 47% of the Moon is Illuminated
Jul 15
Waxing Crescent
Jul 15
First Quarter
Jul 22
Full
Jul 29
Last Quarter
Aug 6
New

Hourly Weather History & Observations

Time (AKDT) Temp. Dew Point Humidity Pressure Visibility Wind Dir Wind Speed Gust Speed Precip Events Conditions
12:53 AM 53.1 °F 48.9 °F 86% 30.30 in 10.0 mi North 3.5 mph - N/A   Clear
1:13 AM 55.0 °F 50.0 °F 83% 30.30 in 10.0 mi Calm Calm - N/A   Mostly Cloudy
1:53 AM 53.1 °F 48.9 °F 86% 30.30 in 10.0 mi Calm Calm - N/A   Overcast
2:53 AM 55.0 °F 50.0 °F 83% 30.29 in 10.0 mi North 4.6 mph - N/A   Overcast
3:53 AM 55.9 °F 50.0 °F 80% 30.28 in 10.0 mi North 5.8 mph - N/A   Overcast
4:53 AM 55.0 °F 48.9 °F 80% 30.28 in 10.0 mi NNE 3.5 mph - N/A   Overcast
5:53 AM 55.9 °F 48.9 °F 77% 30.28 in 10.0 mi NNW 9.2 mph - N/A   Overcast
6:53 AM 55.0 °F 48.0 °F 77% 30.28 in 10.0 mi Calm Calm - N/A   Scattered Clouds
7:53 AM 57.0 °F 48.0 °F 72% 30.28 in 10.0 mi NW 6.9 mph - N/A   Scattered Clouds
8:53 AM 57.0 °F 48.0 °F 72% 30.27 in 10.0 mi NW 8.1 mph - N/A   Partly Cloudy
9:53 AM 57.9 °F 48.0 °F 70% 30.27 in 10.0 mi NW 5.8 mph - N/A   Mostly Cloudy
10:53 AM 59.0 °F 48.9 °F 69% 30.26 in 10.0 mi NW 10.4 mph - N/A   Mostly Cloudy
11:53 AM 61.0 °F 48.9 °F 64% 30.25 in 10.0 mi NNW 10.4 mph - N/A   Mostly Cloudy
12:53 PM 62.1 °F 50.0 °F 65% 30.25 in 10.0 mi WNW 11.5 mph - N/A   Clear
1:53 PM 63.0 °F 48.9 °F 60% 30.24 in 10.0 mi WNW 4.6 mph - N/A   Overcast
2:53 PM 66.0 °F 52.0 °F 60% 30.22 in 10.0 mi WNW 10.4 mph - N/A   Overcast
3:53 PM 63.0 °F 52.0 °F 67% 30.22 in 10.0 mi NW 15.0 mph - N/A   Overcast
4:53 PM 62.1 °F 53.1 °F 72% 30.21 in 10.0 mi NW 17.3 mph - N/A   Clear
5:53 PM 61.0 °F 53.1 °F 75% 30.20 in 10.0 mi NW 15.0 mph - N/A   Overcast
6:53 PM 61.0 °F 53.1 °F 75% 30.21 in 10.0 mi NW 13.8 mph - N/A   Clear
7:53 PM 60.1 °F 52.0 °F 75% 30.20 in 10.0 mi NW 12.7 mph - N/A   Clear
8:26 PM 60.1 °F 52.0 °F 75% 30.20 in 10.0 mi NW 13.8 mph - N/A   Mostly Cloudy
8:45 PM 60.1 °F 52.0 °F 75% 30.20 in 10.0 mi NW 13.8 mph - N/A   Overcast
8:53 PM 60.1 °F 52.0 °F 75% 30.20 in 10.0 mi NW 13.8 mph - N/A   Overcast
9:32 PM 59.0 °F 52.0 °F 78% 30.20 in 10.0 mi NW 12.7 mph - N/A   Overcast
9:53 PM 59.0 °F 52.0 °F 78% 30.21 in 10.0 mi NNW 12.7 mph - N/A   Overcast
10:53 PM 59.0 °F 52.0 °F 78% 30.21 in 10.0 mi NW 12.7 mph - N/A   Overcast
11:53 PM 59.0 °F 52.0 °F 78% 30.20 in 10.0 mi NNW 11.5 mph - N/A   Overcast